Regional Weather Roundup
Issued by NWS Wakefield, VA

Home | Current Version | Previous Version | Text Only | Print | Product List | Glossary On
Versions: 1 2 3 4 5 6 7 8 9 10 11 12 13 14 15 16 17 18 19 20 21 22 23 24 25 26 27 28
000
ASUS41 KAKQ 190110
RWRAKQ

REGIONAL WEATHER ROUNDUP
NATIONAL WEATHER SERVICE WAKEFIELD VA
900 PM EDT FRI APR 18 2014

Note: "fair" indicates few or no clouds below 12,000 feet with no
significant weather and/or obstructions to visibility. * = Denotes
station may not report precipitation (e.g., rain,snow,etc.),
thunder or fog.

VAZ042-051-052>054-056-190200-
NORTHERN VIRGINIA

CITY           SKY/WX    TMP DP  RH WIND       PRES   REMARKS
WASH NATIONAL  CLOUDY    51  35  54 S6        30.32R
DULLES         CLOUDY    48  34  58 S5        30.30R
FORT BELVOIR   CLOUDY    49  35  59 S2        30.32S
QUANTICO       CLOUDY    50  37  61 S6        30.33R
FREDERICKSBRG* CLOUDY    50  39  66 CALM      30.30S
STAFFORD*      CLOUDY    49  38  66 CALM      30.35S
WARRENTON      CLOUDY    48  42  79 SE5       30.30S
CULPEPER*      CLOUDY    52  37  58 CALM      30.31S
MANASSAS*      CLOUDY    48  37  66 S3        30.30F
LEESBURG*      CLOUDY    52  37  58 S7        30.31R
WINCHESTER     CLOUDY    50  36  57 CALM      30.27S
$$

VAZ048-049-060>072-079>083-190200-
CENTRAL AND SOUTH CENTRAL VIRGINIA...AND NORTH CENTRAL NORTH CAROLINA

CITY           SKY/WX    TMP DP  RH WIND       PRES   REMARKS
RICHMOND       CLOUDY    50  37  61 E3        30.30F
CHESTERFIELD*  NOT AVBL
HANOVER        CLOUDY    49  37  63 E3        30.31F
TAPPAHANNOCK*  CLOUDY    46  37  70 CALM      30.30F
CHARLOTTSVILLE CLOUDY    52  37  56 CALM      30.28S
ORANGE*        CLOUDY    50  37  62 CALM      30.31S
LOUISA*        CLOUDY    46  39  76 CALM      30.28S
FARMVILLE*     CLOUDY    50  39  66 CALM      30.28R
SOUTH HILL*    CLOUDY    52  39  62 CALM      30.35R
ROANOKE RAPIDS CLOUDY    54  45  71 NE6       30.28R
RALEIGH        LGT RAIN  54  42  64 N3        30.27R
$$

VAZ088>098-190200-
SOUTHEAST VIRGINIA

CITY           SKY/WX    TMP DP  RH WIND       PRES   REMARKS
NORFOLK        CLOUDY    46  41  82 NE9       30.30F
VIRGINIA BEACH CLOUDY    46  41  82 NE9       30.30F
NORFOLK NAVAL  CLOUDY    47  41  80 E9        30.32F
WEST POINT*    CLOUDY    49  40  71 CALM      30.33R
NEWPORT NEWS   CLOUDY    49  42  77 SE6       30.31F
LANGLEY AFB      N/A    N/A N/A N/A SE7         N/A
FORT EUSTIS    CLOUDY    47  43  84 SE7       30.30S
WILLIAMSBURG*  CLOUDY    48  43  81 SE3       30.31S
FRANKLIN*      CLOUDY    48  43  81 E7        30.30F
WAKEFIELD      CLOUDY    48  40  73 CALM      30.30S
$$

VAZ020-022-025-037-045-190200-
WESTERN AND SOUTHWEST VIRGINIA

CITY           SKY/WX    TMP DP  RH WIND       PRES   REMARKS
STAUNTON*      CLOUDY    50  36  57 CALM      30.28S
HOT SPRINGS VA CLOUDY    46  30  53 S6        30.31R
LYNCHBURG      CLOUDY    51  41  68 CALM      30.29S
DANVILLE       CLOUDY    53  40  61 NE5       30.29R
MARTINSVILLE   CLOUDY    49  44  84 CALM      30.30S
ROANOKE        CLOUDY    51  38  60 CALM      30.29S
BLACKSBURG     CLOUDY    48  43  81 E5        30.28S
DUBLIN*        CLOUDY    49  40  72 CALM      30.27R
MARION*        CLOUDY    50  37  60 SE3       30.28S
HILLSVILLE*    CLOUDY    48  37  66 S5        30.29S
RICHLANDS*     CLOUDY    58  34  40 SE5       30.24S
WISE*          CLOUDY    55  32  41 S3        30.24S
ABINGDON*      CLOUDY    56  38  50 CALM      30.23S
$$

MDZ021>025-VAZ099-100-190200-
SOUTHERN MARYLAND AND THE DELMARVA PENINSULA

CITY           SKY/WX    TMP DP  RH WIND       PRES   REMARKS
PATUXENT RIVER CLOUDY    47  39  74 S5        30.31S
BAY BRIDGE APT CLOUDY    46  36  66 CALM      30.32R
LEONARDTOWN    CLOUDY    46  37  71 CALM      30.32F
DOVER          CLOUDY    44  41  91 SE6       30.27S
GEORGETOWN     CLOUDY    44  38  79 SE5       30.32S
EASTON         CLEAR     50  43  76 CALM      30.34R
CAMBRIDGE      CLOUDY    48  41  76 CALM      30.31R
SALISBURY      CLOUDY    45  39  79 S3        30.33R
OCEAN CITY     CLOUDY    44  38  79 E8        30.31F
WALLOPS ISLAND CLOUDY    45  40  82 E8        30.33F
ACCOMACK*      CLOUDY    43  37  81 E10       30.30F
$$

NCZ012>017-030>032-190200-
EASTERN NORTH CAROLINA

CITY           SKY/WX    TMP DP  RH WIND       PRES   REMARKS
ELIZABETH CITY CLOUDY    48  42  80 NE9       30.31S
AHOSKIE*       CLOUDY    51  42  70 N6        30.30R
EDENTON*       CLOUDY    48  42  80 NE8       30.29F
CURRITUCK*     CLOUDY    47  42  81 NE7       30.32S
KILL DEVIL HLS CLOUDY    46  44  92 NE5       30.30R
MANTEO         CLOUDY    46  44  91 NE12G17   30.31R
CAPE HATTERAS  CLOUDY    51  50  96 NE13G21   30.27R
GOLDSBORO      LGT RAIN  59  48  67 N5        30.22S
WASHINGTON     CLOUDY    53  46  79 NE13      30.26F
GREENVILLE     CLOUDY    54  45  71 E6        30.27R
NEW BERN       LGT RAIN  57  47  69 NE13      30.26S
WILMINGTON     HVY RAIN  57  54  89 N5        30.24R FOG
$$

VAZ048-190200-
ELSEWHERE

CITY           SKY/WX    TMP DP  RH WIND       PRES   REMARKS
HARRISBURG PA  CLOUDY    48  35  60 SE6       30.28R
BALTIMORE      CLOUDY    47  34  60 CALM      30.31R
ANNAPOLIS      CLOUDY    49  35  58 CALM      30.31R
ANDREWS AFB    CLOUDY    47  36  64 SE1       30.31R
WILMINGTON DE  CLOUDY    48  41  76 S10       30.31R
PHILADELPHIA   CLOUDY    51  33  50 S8        30.30S
WILDWOOD NJ*   CLOUDY    43  34  70 E5        30.32F
ATLANTIC CITY  CLOUDY    41  36  82 S6        30.32F
HENDERSON NC   CLOUDY    52  41  65 N3        30.29R
GREENSBORO     LGT RAIN  53  39  59 CALM      30.27R
ROCKY MOUNT    CLOUDY    56  44  64 N10       30.25F
FAYETTEVILLE   LGT RAIN  57  48  72 N3        30.24R
CHARLOTTE      RAIN      48  46  93 NE8       30.25F FOG
$$

VAZ100-190200-
MARINE

STATION/POSITION TIME  TEMP    WIND        PRES    WAVE   SWELL
                       AIR SEA DIR/SP/G            HT/PER HT/PER
                 (UTC) (F)     (DEG/KT/KT) (MB)    (FT/S) (FT/S)
44066 TX TWR #4  0100   41 44   10/  6/  6 1026.8R   7/10   7/10
CAPE MAY NJ      0100   42 53   80/  4/  7 1026.2R
LEWES DE         0100   43 50  120/  2/  3 1025.9R
15NM E FENWICK I 0100   43 45              1026.5F   6/11
OCEAN-CITY-INLET 0100   44 47  100/  5/  7 1026.5R
WACHAPREAGUE VA  0100   45 54   60/ 11/ 13 1026.0F
THOMAS POINT MD  0100   49 52   CALM  /  1 1027.0R
GOOSES REEF MD   0100   49     170/  4/  4 1027.2S
COVE POINT MD    0100   48     200/  5/  6 1026.2F
SOLOMONS ISLAND  0100      52                N/A
BISHOPS HEAD MD  0100   49 55  190/  3/  5 1026.4S
PINEY POINT MD   0100          170/  7/  8   N/A
POTOMAC MD       0100   49     160/  6/  8 1026.1F
CAMBRIDGE MD     0100   49 55  200/  2/  5 1026.1R
LEWISETTA VA     0100   48 53  130/  2/  4 1026.4R
RAPPAHANNOCK LGT 0100          100/ 10/ 11 1027.0R
STINGRAY PT      0100   47     130/  8/ 12 1026.2F
YORK RVR RNG VA  0100   47     110/  8/ 10 1025.6R
YORKTOWN VA      0100   47 55  110/  7/  9 1025.9S
JAMESTOWN VA     0100   47     110/  6/  8   N/A
DOMINION TERM VA 0100   47      80/  6/  9 1026.4R
KIPTOPEKE VA     0100      53   70/  6/ 10   N/A
CHES BAY BRIDGE  0100   45 52   60/ 11/ 15 1026.2R
CAPE HENRY VA    0100   45      50/ 11/ 14   N/A
CHESAPEAKE LGHT  0000   45      30/ 14/ 15 1026.9R
WILLOUBY STN VA  0100   46      80/ 10/ 11 1025.4R
S CRANEY ISL VA  0100           50/  9/ 12 1026.3S
CAPE HENRY BUOY  0100      47                N/A     5/11   2/11
1ST LANDING BUOY 0100      46                N/A     5/10   5/10
64NM E OF VA BCH 0100   47 49   10/ 17/ 21 1025.3R   7/ 9   5/ 9
DUCK PIER NC     0100   46 51   30/ 16/ 17 1024.9S
44100 DUCK FRF   0100      48                N/A     7/10   3/11
44056 DUCK FRF   0100      49                N/A     6/11   2/11
OREGON INLET NC  0100   47 52  360/ 12/ 17 1026.1R
HATTERAS NC      0100   51 56   10/ 11/ 22 1024.7F
CAPE LOOKOUT NC  0000   55      20/ 15/ 21 1023.3R
FRYING PAN SHLS  0100   60 65   50/ 23/ 27 1020.1R   9/ 7   3/ 9
$$



USA.gov is the U.S. government's official web portal to all federal, state and local government web resources and services.